TimePST,TemperatureF,Dew PointF,Humidity,Sea Level PressureIn,VisibilityMPH,Wind Direction,Wind SpeedMPH,Gust SpeedMPH,PrecipitationIn,Events,Conditions,WindDirDegrees,DateUTC
12:53 AM,61.0,46.9,60,30.15,10.0,East,6.9,-,N/A,,Clear,90,2012-11-05 08:53:00
1:53 AM,62.1,46.0,56,30.14,10.0,East,5.8,-,N/A,,Clear,90,2012-11-05 09:53:00
2:53 AM,66.0,46.0,48,30.12,10.0,East,16.1,-,N/A,,Clear,100,2012-11-05 10:53:00
3:53 AM,63.0,45.0,52,30.12,10.0,East,15.0,-,N/A,,Clear,100,2012-11-05 11:53:00
4:53 AM,62.1,44.1,52,30.13,10.0,East,13.8,-,N/A,,Clear,90,2012-11-05 12:53:00
5:53 AM,62.1,45.0,53,30.12,10.0,East,17.3,-,N/A,,Clear,90,2012-11-05 13:53:00
6:53 AM,62.1,45.0,53,30.13,10.0,East,18.4,-,N/A,,Clear,100,2012-11-05 14:53:00
7:53 AM,64.0,46.0,52,30.14,10.0,East,18.4,-,N/A,,Clear,90,2012-11-05 15:53:00
8:53 AM,69.1,46.0,44,30.14,10.0,East,20.7,-,N/A,,Clear,100,2012-11-05 16:53:00
9:53 AM,73.9,46.9,38,30.13,10.0,East,16.1,-,N/A,,Clear,90,2012-11-05 17:53:00
10:53 AM,81.0,48.9,33,30.11,10.0,East,16.1,-,N/A,,Clear,100,2012-11-05 18:53:00
11:53 AM,87.1,48.0,26,30.08,10.0,East,17.3,-,N/A,,Clear,100,2012-11-05 19:53:00
12:53 PM,91.0,41.0,17,30.05,10.0,ESE,12.7,-,N/A,,Clear,110,2012-11-05 20:53:00
1:53 PM,93.0,39.0,15,30.03,10.0,ESE,9.2,-,N/A,,Clear,110,2012-11-05 21:53:00
2:53 PM,95.0,37.0,13,30.02,10.0,ENE,6.9,-,N/A,,Clear,70,2012-11-05 22:53:00
3:53 PM,90.0,43.0,19,30.02,10.0,West,6.9,-,N/A,,Clear,280,2012-11-05 23:53:00
4:53 PM,79.0,44.1,29,30.04,10.0,WNW,6.9,-,N/A,,Clear,290,2012-11-06 00:53:00
5:53 PM,73.9,45.0,35,30.05,10.0,NNW,6.9,-,N/A,,Clear,330,2012-11-06 01:53:00
6:53 PM,73.0,44.1,35,30.06,10.0,Calm,Calm,-,N/A,,Clear,0,2012-11-06 02:53:00
7:53 PM,70.0,45.0,41,30.06,10.0,Calm,Calm,-,N/A,,Clear,0,2012-11-06 03:53:00
8:53 PM,59.0,44.1,58,30.07,10.0,ENE,3.5,-,N/A,,Clear,70,2012-11-06 04:53:00
9:53 PM,61.0,45.0,56,30.08,10.0,Calm,Calm,-,N/A,,Clear,0,2012-11-06 05:53:00
10:53 PM,61.0,45.0,56,30.08,10.0,ESE,4.6,-,N/A,,Clear,110,2012-11-06 06:53:00
11:53 PM,61.0,43.0,52,30.07,10.0,ESE,6.9,-,N/A,,Clear,110,2012-11-06 07:53:00